Weather WX

World > North America > United States > Ohio

Brownsville, Ohio Regional Weather

Lat: 39.95N, Lon: 82.26W
Wx Zone: OHZ056
Warning FLW WEATHER ALERT - FLASH FLOOD WATCH (More Info. Click Here) Warning
Feedback

Brownsville, OH Regional Weather

Expires:201906171000;;205423
ASUS41 KCLE 170902
RWRCLE
OHIO REGIONAL WEATHER ROUNDUP
NATIONAL WEATHER SERVICE CLEVELAND, OH
500 AM EDT MON JUN 17 2019

NOTE: "FAIR" INDICATES FEW OR NO CLOUDS BELOW 12,000 FEET WITH NO
SIGNIFICANT WEATHER AND/OR OBSTRUCTIONS TO VISIBILITY.


OHZ036-037-039>041-045>050-054>059-063>069-073>076-082>088-171000-
  CENTRAL AND SOUTHEAST OHIO
  
CITY           SKY/WX    TMP DP  RH WIND       PRES   REMARKS
COLUMBUS       CLOUDY    67  65  93 S5        29.91F                  
OSU AIRPORT    LGT RAIN  68  66  93 S7        29.91F                  
BOLTON FIELD   MOCLDY    66  65  96 SW6       29.92F                  
RICKENBACK AFB FAIR      66  65  98 S7        29.92S                  
NEWARK         CLOUDY    68  65  90 S5        29.92F                  
MARION         CLOUDY    66  63  90 CALM      29.91S FOG              
LANCASTER      FAIR      66  64  93 S3        29.93F                  
ZANESVILLE     FAIR      66  63  90 S7        29.94S                  
NEW PHILLY     NOT AVBL                                               
$$
  

SKY/WX - Weather  TMP - Temperature  DP - Dew Point  RH - Relative Humidity
WIND - Wind Direction/Speed PRES - Barometric Pressure VSB - Visibility
WCI - Wind Chill Index E13G22 Wind - East Wind 13 mph/Gusts of 22 mph